Home   Weather   Islamabad   Past weeks

Flag for Pakistan Past Weather in Islamabad, Pakistan — Yesterday and Last 2 Weeks

Now
84 °F

Scattered clouds.


Feels Like: 91 °F
Forecast: 78 / 91 °F
Wind: 7 mph from Southeast

Location: Islamabad Airport

Current Time: Jun 27, 2017 at 8:33:28 pm

Latest Report: Jun 27, 2017 at 7:00 pm


Visibility: 2 mi

Pressure: 29.56 "Hg (27.76 "Hg at 554m altitude)

Humidity: 70%

Dew Point: 73 °F

Location of IslamabadLocation

Past Weather in Islamabad — Graph

°F

Islamabad Temperature Yesterday

Maximum temperature yesterday: 95 °F (at 3:00 pm)
Minimum temperature yesterday: 73 °F (at 4:00 am)
Average temperature yesterday: 86 °F

High & Low Weather Summary for the Past Weeks

 TemperatureHumidityPressure
High104 °F (Jun 14, 2:30 pm)100% (Jun 26, 4:00 am)29.80 "Hg (Jun 26, 4:00 am)
Low70 °F (Jun 21, 5:00 am)23% (Jun 14, 3:00 pm)29.39 "Hg (Jun 13, 1:00 am)
Average87 °F54%29.59 "Hg
* Reported Jun 12 6:00 pm — Jun 27 6:30 pm, Islamabad. Weather by CustomWeather, © 2017

Note: Actual official high and low records may vary slightly from our data, if they occured in-between our weather recording intervals... More about our weather records

Advertising

Islamabad Weather History for the Previous 24 Hours

Scroll right to see more
 ConditionsComfort  
Time TempWeatherWind HumidityBarometerVisibility
6:30 pm
Tue, Jun 27
84 °FScattered clouds.7 mph70%29.53 "Hg2 mi
6:00 pm84 °FScattered clouds.9 mph70%29.53 "Hg2 mi
5:00 pm84 °FBroken clouds.9 mph70%29.53 "Hg2 mi
4:30 pm82 °FBroken clouds.9 mph74%29.59 "Hg2 mi
4:00 pm82 °FBroken clouds.9 mph74%29.59 "Hg2 mi
3:00 pm81 °FBroken clouds.18 mph74%29.59 "Hg2 mi
2:30 pm82 °FThundershowers. Broken clouds.25 mph79%29.68 "Hg2 mi
2:00 pm82 °FThundershowers. Broken clouds.25 mph79%29.68 "Hg2 mi
12:00 pm82 °FThundershowers. Broken clouds.18 mph79%29.65 "Hg2 mi
9:50 am82 °FBroken clouds.7 mph79%29.65 "Hg2 mi
9:00 am81 °FBroken clouds.12 mph79%29.80 "Hg2 mi
8:00 am77 °FRain. Broken clouds.18 mph83%29.65 "Hg4 mi
7:30 am81 °FRain. Broken clouds.23 mph79%29.65 "Hg4 mi
6:30 am81 °FBroken clouds.7 mph79%29.62 "Hg4 mi
4:30 am81 °FPassing clouds.9 mph79%29.62 "Hg4 mi
3:55 am81 °FPassing clouds.9 mph79%29.62 "Hg4 mi
3:00 am81 °FPassing clouds.7 mph79%29.59 "Hg4 mi
2:30 am81 °FPassing clouds.7 mph79%29.59 "Hg4 mi
2:00 am81 °FPassing clouds.7 mph79%29.59 "Hg4 mi
12:30 am82 °FPassing clouds.5 mph74%29.59 "Hg4 mi
10:30 pm
Mon, Jun 26
84 °FPassing clouds.9 mph70%29.59 "HgN/A
10:00 pm84 °FPassing clouds.9 mph70%29.59 "HgN/A
9:00 pm88 °FPassing clouds.9 mph62%29.56 "HgN/A
8:00 pm90 °FPassing clouds.9 mph55%29.56 "HgN/A
Weather by CustomWeather, © 2017

See weather overviewHow to use our weather pages